EW5112 Weather Reports


Display with metric or nautical units.
time (UTC)temp
F
wind
direction
speed
MPH
gust
MPH
rain 1hr
in
rain 24hr
in
rain mn
in
humidity
%
barometer
mb
20180919083305 46 85 0.0 1.0 0.00 0.00 0.00 69 1017.1
20180919080304 47 101 0.0 2.0 0.00 0.00 0.00 68 1016.8
20180919073303 48 123 0.0 1.0 0.00 0.00 0.00 65 1016.8
20180919070301 49 153 0.0 1.0 0.00 0.00 0.00 63 1016.4
20180919063259 50 110 0.0 2.0 0.00 0.00 0.00 62 1016.3
20180919060256 51 135 0.0 1.0 0.00 0.00 0.00 59 1016.2
20180919053257 53 144 1.0 2.0 0.00 0.00 0.00 57 1016.2
20180919050255 55 89 0.0 1.0 0.00 0.00 0.00 54 1016.1
20180919043253 58 90 0.0 1.0 0.00 0.00 0.00 49 1015.8
20180919040252 60 25 0.0 2.0 0.00 0.00 0.00 44 1015.7
20180919033253 61 60 0.0 3.0 0.00 0.00 0.00 44 1015.1
20180919030252 65 348 0.0 2.0 0.00 0.00 0.00 37 1014.7
20180919023253 66 328 1.0 3.0 0.00 0.00 0.00 37 1014.4
20180919020253 68 330 1.0 4.0 0.00 0.00 0.00 37 1014.0
20180919013253 70 333 1.0 4.0 0.00 0.00 0.00 36 1013.7
20180919010253 71 314 2.0 6.0 0.00 0.00 0.00 37 1013.5
20180919003253 72 304 2.0 7.0 0.00 0.00 0.00 39 1013.3
20180919000252 73 305 3.0 5.0 0.00 0.00 0.00 38 1013.3
20180918233253 74 300 2.0 6.0 0.00 0.00 0.00 38 1013.3
20180918230253 74 311 3.0 7.0 0.00 0.00 0.00 38 1013.5
20180918223254 74 302 2.0 6.0 0.00 0.00 0.00 38 1013.7
20180918220252 74 307 2.0 5.0 0.00 0.00 0.00 39 1013.9
20180918213300 74 286 2.0 5.0 0.00 0.00 0.00 39 1014.2
20180918200243 71 297 2.0 4.0 0.00 0.00 0.00 43 1015.2
20180918193242 69 340 1.0 4.0 0.00 0.00 0.00 46 1015.6
20180918190252 67 316 1.0 3.0 0.00 0.00 0.00 50 1016.0
20180918183311 64 311 1.0 3.0 0.00 0.00 0.00 53 1016.3
20180918180242 62 317 1.0 3.0 0.00 0.00 0.00 58 1016.6
20180918173243 58 316 1.0 2.0 0.00 0.00 0.00 64 1016.9
20180918170243 55 336 0.0 2.0 0.00 0.00 0.00 69 1017.1
20180918163242 52 321 0.0 1.0 0.00 0.00 0.00 75 1017.5
20180918160243 49 133 0.0 1.0 0.00 0.00 0.00 82 1017.6
20180918153242 46 133 0.0 1.0 0.00 0.00 0.00 86 1017.7
20180918150243 44 133 0.0 1.0 0.00 0.00 0.00 89 1017.6
20180918143242 43 131 0.0 1.0 0.00 0.00 0.00 88 1017.4
20180918140242 44 96 0.0 1.0 0.00 0.00 0.00 88 1017.0
20180918133401 44 96 0.0 1.0 0.00 0.00 0.00 86 1016.8
20180918093238 48 120 0.0 1.0 0.00 0.00 0.00 79 1016.1
20180918090237 49 90 0.0 0.0 0.00 0.00 0.00 78 1016.1